Tacoma Narrows, WA
on Tuesday, December 18, 2012

Tuesday
Previous Day Next Day
Daily Summary
 ActualAverageRecord
Temperature
Mean Temperature °F °F  
Max Temperature 37°F 44°F 52°F (2003)
Min Temperature 33°F 36°F 25°F (2008)
Degree Days
Heating Degree Days 30    
Moisture
Dew Point 32°F   
Average Humidity 85    
Maximum Humidity 93    
Minimum Humidity 76    
Precipitation
Precipitation 0.01 in in in ()
Wind
Wind Speed 12 mph   
Max Wind Speed 16 mph   
Max Gust Speed 25 mph   
Visibility 9 miles   
Events Rain , Snow   
Averages and records for this station are not official NWS values.
Key: T is trace of precipitation, MM is missing value
Source: NWS Daily Summary
Seasonal Weather Averages
Time(PST)TemperatureDew PointHumidity Pressure Visibility Wind DirectionWind SpeedGust SpeedPrecipitationEvents Conditions
12:20 AM 35.6°F 32.0°F 87% 29.89 in 10.0 miles SSW 11.5 mph 17.3 mph N/A   Mostly Cloudy
12:53 AM 36.0°F 32.0°F 86% 29.91 in 10.0 miles South 16.1 mph 20.7 mph 0.00 in   Mostly Cloudy
1:04 AM 35.6°F 32.0°F 87% 29.90 in 10.0 miles South 11.5 mph - 0.00 in   Overcast
1:20 AM 35.6°F 32.0°F 87% 29.89 in 9.0 miles SSW 13.8 mph - 0.00 in Snow Light Snow
1:53 AM 35.1°F 32.0°F 89% 29.90 in 9.0 miles South 13.8 mph - 0.00 in Snow Light Snow
2:53 AM 34.0°F 32.0°F 92% 29.90 in 3.0 miles SSE 6.9 mph - 0.00 in Snow Light Snow
3:01 AM 33.8°F 30.2°F 87% 29.89 in 1.8 miles South 15.0 mph 18.4 mph 0.00 in Snow Light Snow
3:09 AM 33.8°F 30.2°F 87% 29.89 in 3.0 miles South 13.8 mph - 0.00 in Snow Light Snow
3:53 AM 35.1°F 32.0°F 89% 29.90 in 8.0 miles South 12.7 mph 20.7 mph 0.00 in Snow Light Snow
4:17 AM 33.8°F 30.2°F 87% 29.89 in 2.5 miles South 12.7 mph - 0.00 in Snow Light Snow
4:26 AM 33.8°F 32.0°F 93% 29.89 in 7.0 miles South 15.0 mph 21.9 mph 0.00 in Snow Light Snow
4:45 AM 33.8°F 32.0°F 93% 29.88 in 7.0 miles South 13.8 mph 23.0 mph 0.00 in Snow Light Snow
4:53 AM 35.1°F 33.1°F 92% 29.89 in 8.0 miles South 12.7 mph - 0.00 in Snow Light Snow
5:40 AM 35.6°F 32.0°F 87% 29.89 in 10.0 miles South 16.1 mph 25.3 mph 0.00 in   Overcast
5:53 AM 35.1°F 32.0°F 89% 29.90 in 10.0 miles South 12.7 mph 23.0 mph 0.00 in   Mostly Cloudy
6:53 AM 35.1°F 32.0°F 89% 29.91 in 10.0 miles South 13.8 mph - N/A   Overcast
7:08 AM 35.6°F 32.0°F 87% 29.90 in 10.0 miles South 12.7 mph 20.7 mph N/A   Scattered Clouds
7:53 AM 35.1°F 32.0°F 89% 29.93 in 10.0 miles South 15.0 mph 19.6 mph N/A   Scattered Clouds
8:53 AM 35.1°F 32.0°F 89% 29.94 in 10.0 miles SSW 8.1 mph 18.4 mph N/A   Scattered Clouds
9:00 AM 35.6°F 32.0°F 87% 29.93 in 10.0 miles South 11.5 mph 17.3 mph N/A   Overcast
9:09 AM 35.6°F 32.0°F 87% 29.93 in 9.0 miles South 12.7 mph - 0.00 in Snow Light Snow
9:26 AM 35.6°F 32.0°F 87% 29.94 in 10.0 miles South 11.5 mph - 0.00 in   Overcast
9:53 AM 36.0°F 33.1°F 89% 29.96 in 10.0 miles South 12.7 mph - 0.00 in   Overcast
10:49 AM 37.4°F 33.8°F 87% 29.95 in 10.0 miles South 13.8 mph 20.7 mph N/A   Mostly Cloudy
10:50 AM 37.4°F 33.8°F 87% 29.95 in 10.0 miles South 12.7 mph 20.7 mph N/A   Mostly Cloudy
11:53 AM 36.0°F 33.1°F 89% 29.97 in 10.0 miles SSW 8.1 mph 17.3 mph 0.00 in Rain Light Rain
12:53 PM 36.0°F 32.0°F 86% 29.97 in 9.0 miles South 13.8 mph - 0.01 in   Overcast
1:25 PM 37.4°F 33.8°F 87% 29.95 in 10.0 miles South 9.2 mph 19.6 mph 0.00 in   Overcast
1:53 PM 37.9°F 33.1°F 83% 29.96 in 10.0 miles South 12.7 mph - 0.00 in   Overcast
2:53 PM 37.0°F 30.9°F 79% 29.98 in 10.0 miles SSW 10.4 mph - N/A   Overcast
3:53 PM 37.0°F 30.9°F 79% 29.99 in 10.0 miles SW 12.7 mph 19.6 mph N/A   Overcast
4:53 PM 37.0°F 32.0°F 82% 29.99 in 10.0 miles South 10.4 mph - N/A   Overcast
5:00 PM 37.4°F 32.0°F 81% 29.98 in 10.0 miles South 12.7 mph - N/A   Overcast
5:53 PM 37.0°F 30.9°F 79% 29.99 in 10.0 miles South 13.8 mph - N/A   Overcast
6:00 PM 37.4°F 32.0°F 81% 29.98 in 10.0 miles South 10.4 mph - N/A   Overcast
6:53 PM 36.0°F 32.0°F 86% 30.00 in 10.0 miles South 10.4 mph - N/A   Overcast
7:53 PM 36.0°F 30.9°F 82% 30.00 in 10.0 miles South 11.5 mph 19.6 mph N/A   Overcast
8:03 PM 35.6°F 30.2°F 81% 29.98 in 10.0 miles South 10.4 mph - N/A   Overcast
8:37 PM 35.6°F 30.2°F 81% 29.99 in 10.0 miles South 11.5 mph - N/A   Overcast
8:48 PM 35.6°F 30.2°F 81% 29.98 in 10.0 miles South 10.4 mph - N/A   Overcast
8:53 PM 36.0°F 30.9°F 82% 29.99 in 10.0 miles South 9.2 mph - N/A   Mostly Cloudy
9:21 PM 35.6°F 30.2°F 81% 29.98 in 10.0 miles South 6.9 mph - N/A   Mostly Cloudy
9:53 PM 35.1°F 30.0°F 82% 29.99 in 10.0 miles South 10.4 mph - N/A   Scattered Clouds
10:53 PM 36.0°F 30.0°F 79% 29.99 in 10.0 miles South 8.1 mph - N/A   Overcast
11:53 PM 37.0°F 30.0°F 76% 29.97 in 10.0 miles South 6.9 mph - N/A   Mostly Cloudy
Moon Phase
Dec. 18 Dec. 20 Dec. 28 Jan. 04 Jan. 11
Sunrise:07:52 AM (PST) Moon Rise:11:13 AM (PST)12/18
Sunset:04:21 PM (PST) Moon Set:11:18 PM (PST)12/18

Copyright © 2014 The Weather Underground, Inc.